| time (UTC) | temp C | wind direction | speed KPH | gust KPH | rain 1hr cm | rain 24hr cm | rain mn cm | humidity % | barometer mb |
| 20260507100048 | 12 | 0 | 0.0 | 0.0 | 0.00 | 0.00 | 0.00 | 86 | 1016.4 |
| 20260507095520 | 12 | 0 | 0.0 | 0.0 | 0.00 | 0.00 | 0.00 | 86 | 1016.5 |
| 20260507095020 | 12 | 0 | 0.0 | 0.0 | 0.00 | 0.00 | 0.00 | 86 | 1016.5 |
| 20260507094536 | 12 | 0 | 0.0 | 0.0 | 0.00 | 0.00 | 0.00 | 86 | 1016.6 |
| 20260507094017 | 12 | 0 | 0.0 | 0.0 | 0.00 | 0.00 | 0.00 | 86 | 1016.6 |
| 20260507093520 | 12 | 0 | 0.0 | 0.0 | 0.00 | 0.00 | 0.00 | 85 | 1016.6 |
| 20260507093035 | 12 | 0 | 0.0 | 0.0 | 0.00 | 0.00 | 0.00 | 85 | 1016.7 |
| 20260507092518 | 12 | 0 | 0.0 | 0.0 | 0.00 | 0.00 | 0.00 | 85 | 1016.8 |
| 20260507092019 | 12 | 0 | 0.0 | 0.0 | 0.00 | 0.00 | 0.00 | 85 | 1016.9 |
| 20260507091537 | 12 | 0 | 0.0 | 0.0 | 0.00 | 0.00 | 0.00 | 85 | 1017.0 |
| 20260507091018 | 12 | 0 | 0.0 | 0.0 | 0.00 | 0.00 | 0.00 | 85 | 1017.0 |
| 20260507090520 | 12 | 0 | 0.0 | 0.0 | 0.00 | 0.00 | 0.00 | 85 | 1017.0 |
| 20260507090034 | 12 | 0 | 0.0 | 0.0 | 0.00 | 0.00 | 0.00 | 85 | 1017.0 |
| 20260507085519 | 12 | 0 | 0.0 | 0.0 | 0.00 | 0.00 | 0.00 | 84 | 1017.1 |
| 20260507085018 | 12 | 0 | 0.0 | 0.0 | 0.00 | 0.00 | 0.00 | 84 | 1017.2 |
| 20260507084544 | 13 | 0 | 0.0 | 0.0 | 0.00 | 0.00 | 0.00 | 84 | 1017.2 |
| 20260507084018 | 13 | 0 | 0.0 | 0.0 | 0.00 | 0.00 | 0.00 | 84 | 1017.3 |
| 20260507083519 | 13 | 0 | 0.0 | 0.0 | 0.00 | 0.00 | 0.00 | 84 | 1017.3 |
| 20260507083048 | 13 | 0 | 0.0 | 0.0 | 0.00 | 0.00 | 0.00 | 83 | 1017.3 |
| 20260507082517 | 13 | 0 | 0.0 | 0.0 | 0.00 | 0.00 | 0.00 | 83 | 1017.3 |
| 20260507082018 | 13 | 0 | 0.0 | 0.0 | 0.00 | 0.00 | 0.00 | 83 | 1017.3 |
| 20260507081537 | 13 | 0 | 0.0 | 0.0 | 0.00 | 0.00 | 0.00 | 83 | 1017.3 |
| 20260507081018 | 13 | 0 | 0.0 | 0.0 | 0.00 | 0.00 | 0.00 | 83 | 1017.4 |
| 20260507080518 | 13 | 0 | 0.0 | 0.0 | 0.00 | 0.00 | 0.00 | 82 | 1017.4 |
| 20260507080039 | 13 | 0 | 0.0 | 0.0 | 0.00 | 0.00 | 0.00 | 82 | 1017.4 |
| 20260507075518 | 13 | 0 | 0.0 | 0.0 | 0.00 | 0.00 | 0.00 | 82 | 1017.4 |
| 20260507075017 | 13 | 0 | 0.0 | 0.0 | 0.00 | 0.00 | 0.00 | 82 | 1017.5 |
| 20260507074536 | 13 | 0 | 0.0 | 0.0 | 0.00 | 0.00 | 0.00 | 82 | 1017.5 |
| 20260507074017 | 13 | 0 | 0.0 | 0.0 | 0.00 | 0.00 | 0.00 | 82 | 1017.4 |
| 20260507073522 | 14 | 0 | 0.0 | 0.0 | 0.00 | 0.00 | 0.00 | 82 | 1017.4 |
| 20260507073048 | 14 | 0 | 0.0 | 0.0 | 0.00 | 0.00 | 0.00 | 82 | 1017.4 |
| 20260507072519 | 14 | 0 | 0.0 | 0.0 | 0.00 | 0.00 | 0.00 | 81 | 1017.4 |
| 20260507072017 | 14 | 0 | 0.0 | 0.0 | 0.00 | 0.00 | 0.00 | 81 | 1017.4 |
| 20260507071536 | 14 | 0 | 0.0 | 0.0 | 0.00 | 0.00 | 0.00 | 81 | 1017.4 |
| 20260507071020 | 15 | 0 | 0.0 | 0.0 | 0.00 | 0.00 | 0.00 | 81 | 1017.5 |
| 20260507070522 | 15 | 0 | 0.0 | 0.0 | 0.00 | 0.00 | 0.00 | 81 | 1017.5 |
| 20260507070038 | 15 | 0 | 0.0 | 0.0 | 0.00 | 0.00 | 0.00 | 80 | 1017.5 |
| 20260507065519 | 15 | 0 | 0.0 | 0.0 | 0.00 | 0.00 | 0.00 | 80 | 1017.6 |
| 20260507065018 | 15 | 0 | 0.0 | 0.0 | 0.00 | 0.00 | 0.00 | 80 | 1017.6 |
| 20260507064539 | 15 | 0 | 0.0 | 0.0 | 0.00 | 0.00 | 0.00 | 79 | 1017.6 |
| 20260507064017 | 15 | 0 | 0.0 | 0.0 | 0.00 | 0.00 | 0.00 | 79 | 1017.7 |
| 20260507063518 | 15 | 0 | 0.0 | 0.0 | 0.00 | 0.00 | 0.00 | 79 | 1017.6 |
| 20260507063046 | 15 | 0 | 0.0 | 0.0 | 0.00 | 0.00 | 0.00 | 79 | 1017.7 |
| 20260507062517 | 15 | 0 | 0.0 | 0.0 | 0.00 | 0.00 | 0.00 | 79 | 1017.7 |
| 20260507062017 | 15 | 0 | 0.0 | 0.0 | 0.00 | 0.00 | 0.00 | 79 | 1017.6 |
| 20260507061537 | 16 | 0 | 0.0 | 0.0 | 0.00 | 0.00 | 0.00 | 79 | 1017.7 |
| 20260507061023 | 16 | 0 | 0.0 | 0.0 | 0.00 | 0.00 | 0.00 | 78 | 1017.7 |
| 20260507060520 | 16 | 0 | 0.0 | 0.0 | 0.00 | 0.00 | 0.00 | 77 | 1017.7 |
| 20260507060035 | 16 | 0 | 0.0 | 0.0 | 0.00 | 0.00 | 0.00 | 77 | 1017.6 |
| 20260507055518 | 16 | 0 | 0.0 | 0.0 | 0.00 | 0.00 | 0.00 | 77 | 1017.7 |
| 20260507055019 | 16 | 0 | 0.0 | 0.0 | 0.00 | 0.00 | 0.00 | 77 | 1017.7 |
| 20260507054540 | 16 | 0 | 0.0 | 0.0 | 0.00 | 0.00 | 0.00 | 77 | 1017.6 |
| 20260507054018 | 16 | 0 | 0.0 | 0.0 | 0.00 | 0.00 | 0.00 | 76 | 1017.7 |
| 20260507053518 | 16 | 0 | 0.0 | 0.0 | 0.00 | 0.00 | 0.00 | 76 | 1017.6 |
| 20260507053035 | 16 | 0 | 0.0 | 0.0 | 0.00 | 0.00 | 0.00 | 76 | 1017.6 |
| 20260507052517 | 16 | 0 | 0.0 | 0.0 | 0.00 | 0.00 | 0.00 | 76 | 1017.7 |
| 20260507052018 | 16 | 0 | 0.0 | 0.0 | 0.00 | 0.00 | 0.00 | 76 | 1017.6 |
| 20260507051535 | 16 | 0 | 0.0 | 0.0 | 0.00 | 0.00 | 0.00 | 76 | 1017.5 |
| 20260507051018 | 16 | 0 | 0.0 | 0.0 | 0.00 | 0.00 | 0.00 | 75 | 1017.5 |
| 20260507050520 | 16 | 0 | 0.0 | 0.0 | 0.00 | 0.00 | 0.00 | 75 | 1017.5 |
| 20260507050040 | 17 | 0 | 0.0 | 0.0 | 0.00 | 0.00 | 0.00 | 75 | 1017.4 |
| 20260507045517 | 17 | 0 | 0.0 | 0.0 | 0.00 | 0.00 | 0.00 | 75 | 1017.4 |
| 20260507045017 | 17 | 0 | 0.0 | 0.0 | 0.00 | 0.00 | 0.00 | 74 | 1017.4 |
| 20260507044540 | 17 | 0 | 0.0 | 0.0 | 0.00 | 0.00 | 0.00 | 74 | 1017.4 |
| 20260507044018 | 17 | 0 | 0.0 | 0.0 | 0.00 | 0.00 | 0.00 | 74 | 1017.3 |
| 20260507043520 | 17 | 0 | 0.0 | 0.0 | 0.00 | 0.00 | 0.00 | 73 | 1017.4 |
| 20260507043036 | 17 | 0 | 0.0 | 0.0 | 0.00 | 0.00 | 0.00 | 73 | 1017.3 |
| 20260507042518 | 17 | 0 | 0.0 | 0.0 | 0.00 | 0.00 | 0.00 | 73 | 1017.3 |
| 20260507042017 | 17 | 0 | 0.0 | 0.0 | 0.00 | 0.00 | 0.00 | 73 | 1017.3 |
| 20260507041543 | 17 | 0 | 0.0 | 0.0 | 0.00 | 0.00 | 0.00 | 72 | 1017.2 |
| 20260507041018 | 17 | 0 | 0.0 | 4.8 | 0.00 | 0.00 | 0.00 | 71 | 1017.2 |
| 20260507040518 | 17 | 0 | 0.0 | 4.8 | 0.00 | 0.00 | 0.00 | 71 | 1017.2 |
| 20260507040035 | 17 | 0 | 0.0 | 6.4 | 0.00 | 0.00 | 0.00 | 71 | 1017.1 |
| 20260507035517 | 17 | 0 | 0.0 | 9.7 | 0.00 | 0.00 | 0.00 | 71 | 1017.1 |
| 20260507035017 | 18 | 210 | 1.6 | 9.7 | 0.00 | 0.00 | 0.00 | 70 | 1017.0 |
| 20260507034535 | 18 | 0 | 1.6 | 9.7 | 0.00 | 0.00 | 0.00 | 70 | 1016.8 |
| 20260507034018 | 18 | 0 | 0.0 | 8.0 | 0.00 | 0.00 | 0.00 | 70 | 1017.0 |
| 20260507033520 | 18 | 210 | 3.2 | 8.0 | 0.00 | 0.00 | 0.00 | 69 | 1016.7 |
| 20260507033036 | 18 | 0 | 1.6 | 9.7 | 0.00 | 0.00 | 0.00 | 69 | 1016.7 |
| 20260507032519 | 18 | 0 | 0.0 | 9.7 | 0.00 | 0.00 | 0.00 | 68 | 1016.7 |
| 20260507032018 | 18 | 211 | 1.6 | 9.7 | 0.00 | 0.00 | 0.00 | 68 | 1016.6 |
| 20260507031535 | 18 | 0 | 0.0 | 11.3 | 0.00 | 0.00 | 0.00 | 68 | 1016.6 |
| 20260507031020 | 18 | 211 | 3.2 | 11.3 | 0.00 | 0.00 | 0.00 | 67 | 1016.5 |
| 20260507030519 | 18 | 211 | 3.2 | 11.3 | 0.00 | 0.00 | 0.00 | 67 | 1016.4 |
| 20260507030035 | 19 | 212 | 3.2 | 11.3 | 0.00 | 0.00 | 0.00 | 66 | 1016.4 |
| 20260507025517 | 19 | 215 | 0.0 | 11.3 | 0.00 | 0.00 | 0.00 | 66 | 1016.4 |
| 20260507025017 | 19 | 215 | 1.6 | 12.9 | 0.00 | 0.00 | 0.00 | 65 | 1016.4 |
| 20260507024537 | 19 | 208 | 1.6 | 12.9 | 0.00 | 0.00 | 0.00 | 65 | 1016.3 |
| 20260507024017 | 19 | 217 | 3.2 | 12.9 | 0.00 | 0.00 | 0.00 | 65 | 1016.2 |
| 20260507023525 | 20 | 213 | 1.6 | 12.9 | 0.00 | 0.00 | 0.00 | 64 | 1016.2 |
| 20260507023040 | 20 | 219 | 3.2 | 16.1 | 0.00 | 0.00 | 0.00 | 64 | 1016.2 |
| 20260507022517 | 20 | 209 | 6.4 | 16.1 | 0.00 | 0.00 | 0.00 | 64 | 1016.2 |
| 20260507022018 | 20 | 242 | 3.2 | 12.9 | 0.00 | 0.00 | 0.00 | 63 | 1016.1 |
| 20260507021535 | 20 | 0 | 3.2 | 12.9 | 0.00 | 0.00 | 0.00 | 63 | 1016.1 |
| 20260507021022 | 20 | 234 | 6.4 | 16.1 | 0.00 | 0.00 | 0.00 | 62 | 1016.0 |
| 20260507020519 | 21 | 220 | 6.4 | 16.1 | 0.00 | 0.00 | 0.00 | 61 | 1016.0 |
| 20260507020043 | 21 | 212 | 4.8 | 16.1 | 0.00 | 0.00 | 0.00 | 60 | 1015.9 |
| 20260507015517 | 21 | 225 | 6.4 | 16.1 | 0.00 | 0.00 | 0.00 | 60 | 1015.9 |
| 20260507015034 | 22 | 213 | 6.4 | 17.7 | 0.00 | 0.00 | 0.00 | 59 | 1015.9 |
| 20260507014542 | 22 | 238 | 6.4 | 17.7 | 0.00 | 0.00 | 0.00 | 59 | 1015.9 |
| 20260507014017 | 22 | 214 | 4.8 | 17.7 | 0.00 | 0.00 | 0.00 | 58 | 1015.9 |
| 20260507013519 | 22 | 227 | 6.4 | 17.7 | 0.00 | 0.00 | 0.00 | 58 | 1015.9 |
| 20260507013037 | 22 | 236 | 8.0 | 17.7 | 0.00 | 0.00 | 0.00 | 57 | 1015.9 |
| 20260507012517 | 22 | 219 | 4.8 | 17.7 | 0.00 | 0.00 | 0.00 | 57 | 1015.7 |
| 20260507012017 | 22 | 210 | 8.0 | 17.7 | 0.00 | 0.00 | 0.00 | 56 | 1015.9 |
| 20260507011536 | 23 | 204 | 8.0 | 16.1 | 0.00 | 0.00 | 0.00 | 56 | 1015.7 |
| 20260507011017 | 23 | 216 | 6.4 | 17.7 | 0.00 | 0.00 | 0.00 | 56 | 1015.7 |
| 20260507010517 | 23 | 207 | 4.8 | 19.3 | 0.00 | 0.00 | 0.00 | 56 | 1015.7 |
| 20260507010036 | 23 | 240 | 8.0 | 19.3 | 0.00 | 0.00 | 0.00 | 55 | 1015.6 |
| 20260507005519 | 23 | 250 | 6.4 | 19.3 | 0.00 | 0.00 | 0.00 | 55 | 1015.6 |
| 20260507005020 | 23 | 0 | 8.0 | 19.3 | 0.00 | 0.00 | 0.00 | 54 | 1015.5 |
| 20260507004538 | 23 | 240 | 8.0 | 17.7 | 0.00 | 0.00 | 0.00 | 53 | 1015.6 |
| 20260507004017 | 23 | 255 | 9.7 | 17.7 | 0.00 | 0.00 | 0.00 | 53 | 1015.6 |
| 20260507003518 | 23 | 253 | 6.4 | 16.1 | 0.00 | 0.00 | 0.00 | 54 | 1015.6 |
| 20260507003039 | 24 | 223 | 8.0 | 19.3 | 0.00 | 0.00 | 0.00 | 53 | 1015.6 |
| 20260507002519 | 23 | 236 | 4.8 | 19.3 | 0.00 | 0.00 | 0.00 | 54 | 1015.5 |
| 20260507002018 | 23 | 235 | 9.7 | 25.7 | 0.00 | 0.00 | 0.00 | 53 | 1015.5 |
| 20260507001535 | 23 | 253 | 4.8 | 25.7 | 0.00 | 0.00 | 0.00 | 53 | 1015.5 |
| 20260507001017 | 23 | 241 | 8.0 | 19.3 | 0.00 | 0.00 | 0.00 | 53 | 1015.5 |
| 20260507000517 | 23 | 225 | 4.8 | 22.5 | 0.00 | 0.00 | 0.00 | 52 | 1015.5 |
| 20260507000033 | 23 | 213 | 9.7 | 22.5 | 0.00 | 0.00 | 0.00 | 53 | 1015.4 |
| 20260506235517 | 24 | 235 | 6.4 | 20.9 | 0.00 | 0.00 | 0.00 | 52 | 1015.4 |
| 20260506235017 | 24 | 227 | 8.0 | 20.9 | 0.00 | 0.00 | 0.00 | 52 | 1015.3 |
| 20260506234538 | 24 | 225 | 6.4 | 17.7 | 0.00 | 0.00 | 0.00 | 51 | 1015.3 |
| 20260506234016 | 24 | 228 | 9.7 | 20.9 | 0.00 | 0.00 | 0.00 | 51 | 1015.4 |
| 20260506233518 | 23 | 232 | 9.7 | 20.9 | 0.00 | 0.00 | 0.00 | 51 | 1015.4 |
| 20260506233035 | 24 | 247 | 8.0 | 19.3 | 0.00 | 0.00 | 0.00 | 50 | 1015.4 |
| 20260506232517 | 24 | 261 | 8.0 | 19.3 | 0.00 | 0.00 | 0.00 | 50 | 1015.4 |
| 20260506232018 | 24 | 253 | 9.7 | 19.3 | 0.00 | 0.00 | 0.00 | 50 | 1015.3 |
| 20260506231546 | 24 | 240 | 8.0 | 19.3 | 0.00 | 0.00 | 0.00 | 49 | 1015.4 |
| 20260506231017 | 24 | 222 | 8.0 | 17.7 | 0.00 | 0.00 | 0.00 | 51 | 1015.3 |
| 20260506230518 | 24 | 0 | 9.7 | 19.3 | 0.00 | 0.00 | 0.00 | 51 | 1015.3 |
| 20260506230052 | 24 | 232 | 9.7 | 19.3 | 0.00 | 0.00 | 0.00 | 50 | 1015.3 |
| 20260506225520 | 24 | 200 | 4.8 | 24.1 | 0.00 | 0.00 | 0.00 | 50 | 1015.4 |
| 20260506225017 | 24 | 250 | 8.0 | 24.1 | 0.00 | 0.00 | 0.00 | 51 | 1015.5 |
| 20260506224538 | 25 | 219 | 12.9 | 20.9 | 0.00 | 0.00 | 0.00 | 51 | 1015.6 |
| 20260506224016 | 25 | 260 | 8.0 | 19.3 | 0.00 | 0.00 | 0.00 | 50 | 1015.5 |
| 20260506223517 | 24 | 200 | 8.0 | 22.5 | 0.00 | 0.00 | 0.00 | 52 | 1015.6 |
| 20260506223047 | 24 | 267 | 9.7 | 22.5 | 0.00 | 0.00 | 0.00 | 51 | 1015.6 |
| 20260506222518 | 24 | 298 | 6.4 | 20.9 | 0.00 | 0.00 | 0.00 | 51 | 1015.7 |
| 20260506222020 | 24 | 221 | 8.0 | 20.9 | 0.00 | 0.00 | 0.00 | 51 | 1015.8 |
| 20260506221535 | 24 | 264 | 6.4 | 20.9 | 0.00 | 0.00 | 0.00 | 52 | 1015.9 |
| 20260506221019 | 24 | 271 | 9.7 | 20.9 | 0.00 | 0.00 | 0.00 | 53 | 1016.0 |
| 20260506220521 | 24 | 219 | 8.0 | 24.1 | 0.00 | 0.00 | 0.00 | 53 | 1016.1 |
| 20260506220033 | 24 | 269 | 11.3 | 24.1 | 0.00 | 0.00 | 0.00 | 52 | 1016.1 |
| 20260506215523 | 24 | 228 | 8.0 | 22.5 | 0.00 | 0.00 | 0.00 | 53 | 1016.2 |
| 20260506215018 | 24 | 227 | 11.3 | 22.5 | 0.00 | 0.00 | 0.00 | 52 | 1016.3 |
| 20260506214536 | 24 | 242 | 4.8 | 22.5 | 0.00 | 0.00 | 0.00 | 52 | 1016.3 |
| 20260506214018 | 24 | 216 | 9.7 | 22.5 | 0.00 | 0.00 | 0.00 | 53 | 1016.4 |
| 20260506213520 | 25 | 275 | 6.4 | 17.7 | 0.00 | 0.00 | 0.00 | 53 | 1016.3 |
| 20260506213045 | 25 | 238 | 4.8 | 17.7 | 0.00 | 0.00 | 0.00 | 52 | 1016.4 |
| 20260506212518 | 25 | 233 | 4.8 | 17.7 | 0.00 | 0.00 | 0.00 | 52 | 1016.5 |
| 20260506212018 | 25 | 213 | 6.4 | 16.1 | 0.00 | 0.00 | 0.00 | 52 | 1016.5 |
| 20260506211547 | 24 | 232 | 3.2 | 16.1 | 0.00 | 0.00 | 0.00 | 53 | 1016.5 |
| 20260506211018 | 24 | 225 | 6.4 | 17.7 | 0.00 | 0.00 | 0.00 | 53 | 1016.6 |
| 20260506210517 | 24 | 273 | 8.0 | 19.3 | 0.00 | 0.00 | 0.00 | 53 | 1016.6 |
| 20260506210036 | 23 | 213 | 4.8 | 20.9 | 0.00 | 0.00 | 0.00 | 53 | 1016.6 |
| 20260506205517 | 23 | 255 | 4.8 | 20.9 | 0.00 | 0.00 | 0.00 | 52 | 1016.6 |
| 20260506205018 | 23 | 261 | 8.0 | 20.9 | 0.00 | 0.00 | 0.00 | 50 | 1016.7 |
| 20260506204541 | 23 | 236 | 8.0 | 19.3 | 0.00 | 0.00 | 0.00 | 51 | 1016.8 |
| 20260506204018 | 23 | 206 | 3.2 | 19.3 | 0.00 | 0.00 | 0.00 | 50 | 1016.7 |
| 20260506203518 | 23 | 246 | 8.0 | 19.3 | 0.00 | 0.00 | 0.00 | 50 | 1016.8 |
| 20260506203035 | 23 | 252 | 8.0 | 17.7 | 0.00 | 0.00 | 0.00 | 50 | 1016.8 |
| 20260506202520 | 23 | 196 | 8.0 | 17.7 | 0.00 | 0.00 | 0.00 | 51 | 1016.8 |
| 20260506202017 | 23 | 257 | 4.8 | 14.5 | 0.00 | 0.00 | 0.00 | 51 | 1016.8 |
| 20260506201550 | 23 | 0 | 3.2 | 16.1 | 0.00 | 0.00 | 0.00 | 50 | 1017.0 |
| 20260506201018 | 23 | 200 | 6.4 | 16.1 | 0.00 | 0.00 | 0.00 | 53 | 1017.1 |
| 20260506200517 | 23 | 0 | 4.8 | 16.1 | 0.00 | 0.00 | 0.00 | 53 | 1017.2 |
| 20260506200035 | 23 | 229 | 1.6 | 16.1 | 0.00 | 0.00 | 0.00 | 51 | 1017.3 |
| 20260506195518 | 22 | 217 | 4.8 | 16.1 | 0.00 | 0.00 | 0.00 | 52 | 1017.3 |
| 20260506195018 | 22 | 226 | 3.2 | 16.1 | 0.00 | 0.00 | 0.00 | 52 | 1017.4 |
| 20260506194536 | 22 | 0 | 1.6 | 16.1 | 0.00 | 0.00 | 0.00 | 52 | 1017.4 |
| 20260506194017 | 22 | 211 | 3.2 | 11.3 | 0.00 | 0.00 | 0.00 | 55 | 1017.5 |
| 20260506193517 | 22 | 0 | 3.2 | 14.5 | 0.00 | 0.00 | 0.00 | 53 | 1017.5 |
| 20260506193033 | 22 | 0 | 3.2 | 17.7 | 0.00 | 0.00 | 0.00 | 53 | 1017.6 |
| 20260506192517 | 22 | 0 | 4.8 | 17.7 | 0.00 | 0.00 | 0.00 | 54 | 1017.7 |
| 20260506192019 | 22 | 248 | 9.7 | 14.5 | 0.00 | 0.00 | 0.00 | 55 | 1017.7 |
| 20260506191540 | 21 | 224 | 1.6 | 19.3 | 0.00 | 0.00 | 0.00 | 55 | 1017.8 |
| 20260506191020 | 21 | 198 | 6.4 | 19.3 | 0.00 | 0.00 | 0.00 | 54 | 1017.9 |
| 20260506190525 | 21 | 223 | 6.4 | 17.7 | 0.00 | 0.00 | 0.00 | 56 | 1017.9 |
| 20260506190036 | 21 | 239 | 6.4 | 19.3 | 0.00 | 0.00 | 0.00 | 57 | 1017.9 |
| 20260506185516 | 21 | 265 | 8.0 | 19.3 | 0.00 | 0.00 | 0.00 | 56 | 1018.1 |
| 20260506185019 | 21 | 250 | 8.0 | 20.9 | 0.00 | 0.00 | 0.00 | 57 | 1018.1 |
| 20260506184532 | 21 | 267 | 9.7 | 20.9 | 0.00 | 0.00 | 0.00 | 55 | 1018.2 |
| 20260506184019 | 21 | 245 | 6.4 | 16.1 | 0.00 | 0.00 | 0.00 | 56 | 1018.2 |
| 20260506183518 | 21 | 272 | 3.2 | 17.7 | 0.00 | 0.00 | 0.00 | 57 | 1018.3 |
| 20260506183042 | 20 | 227 | 3.2 | 17.7 | 0.00 | 0.00 | 0.00 | 58 | 1018.2 |
| 20260506182519 | 20 | 268 | 6.4 | 19.3 | 0.00 | 0.00 | 0.00 | 57 | 1018.3 |
| 20260506182017 | 20 | 260 | 9.7 | 19.3 | 0.00 | 0.00 | 0.00 | 57 | 1018.4 |
| 20260506181537 | 20 | 269 | 6.4 | 17.7 | 0.00 | 0.00 | 0.00 | 58 | 1018.3 |
| 20260506181020 | 20 | 284 | 8.0 | 17.7 | 0.00 | 0.00 | 0.00 | 58 | 1018.3 |
| 20260506180517 | 20 | 304 | 4.8 | 17.7 | 0.00 | 0.00 | 0.00 | 58 | 1018.3 |
| 20260506180037 | 20 | 0 | 6.4 | 17.7 | 0.00 | 0.00 | 0.00 | 57 | 1018.3 |
| 20260506175519 | 20 | 217 | 4.8 | 19.3 | 0.00 | 0.00 | 0.00 | 58 | 1018.3 |
| 20260506175019 | 20 | 245 | 9.7 | 19.3 | 0.00 | 0.00 | 0.00 | 58 | 1018.4 |
| 20260506174540 | 20 | 249 | 4.8 | 19.3 | 0.00 | 0.00 | 0.00 | 59 | 1018.4 |
| 20260506174021 | 20 | 241 | 6.4 | 17.7 | 0.00 | 0.00 | 0.00 | 59 | 1018.4 |
| 20260506173517 | 20 | 269 | 8.0 | 17.7 | 0.00 | 0.00 | 0.00 | 59 | 1018.4 |
| 20260506173034 | 20 | 219 | 6.4 | 16.1 | 0.00 | 0.00 | 0.00 | 61 | 1018.3 |
| 20260506172517 | 19 | 275 | 3.2 | 14.5 | 0.00 | 0.00 | 0.00 | 62 | 1018.4 |
| 20260506172018 | 19 | 266 | 0.0 | 14.5 | 0.00 | 0.00 | 0.00 | 63 | 1018.4 |
| 20260506171538 | 19 | 272 | 6.4 | 14.5 | 0.00 | 0.00 | 0.00 | 62 | 1018.5 |
| 20260506171021 | 19 | 0 | 1.6 | 14.5 | 0.00 | 0.00 | 0.00 | 64 | 1018.5 |
| 20260506170519 | 18 | 271 | 3.2 | 14.5 | 0.00 | 0.00 | 0.00 | 63 | 1018.5 |
| 20260506170057 | 18 | 232 | 3.2 | 14.5 | 0.00 | 0.00 | 0.00 | 64 | 1018.4 |
| 20260506165517 | 18 | 247 | 0.0 | 14.5 | 0.00 | 0.00 | 0.00 | 64 | 1018.4 |
| 20260506165017 | 18 | 247 | 8.0 | 14.5 | 0.00 | 0.00 | 0.00 | 66 | 1018.4 |
| 20260506164536 | 18 | 0 | 0.0 | 11.3 | 0.00 | 0.00 | 0.00 | 65 | 1018.4 |
| 20260506164023 | 18 | 0 | 0.0 | 11.3 | 0.00 | 0.00 | 0.00 | 66 | 1018.5 |
| 20260506163517 | 18 | 0 | 1.6 | 11.3 | 0.00 | 0.00 | 0.00 | 65 | 1018.5 |
| 20260506163035 | 18 | 0 | 0.0 | 0.0 | 0.00 | 0.00 | 0.00 | 68 | 1018.5 |
| 20260506162523 | 17 | 0 | 0.0 | 0.0 | 0.00 | 0.00 | 0.00 | 67 | 1018.6 |
| 20260506162024 | 18 | 0 | 0.0 | 0.0 | 0.00 | 0.00 | 0.00 | 65 | 1018.6 |
| 20260506161539 | 18 | 0 | 0.0 | 0.0 | 0.00 | 0.00 | 0.00 | 65 | 1018.6 |
| 20260506161019 | 18 | 0 | 0.0 | 0.0 | 0.00 | 0.00 | 0.00 | 66 | 1018.6 |
| 20260506160520 | 18 | 0 | 0.0 | 0.0 | 0.00 | 0.00 | 0.00 | 66 | 1018.5 |
| 20260506160040 | 17 | 0 | 0.0 | 0.0 | 0.00 | 0.00 | 0.00 | 66 | 1018.7 |
| 20260506155520 | 17 | 0 | 0.0 | 0.0 | 0.00 | 0.00 | 0.00 | 67 | 1018.7 |
| 20260506155017 | 17 | 0 | 0.0 | 0.0 | 0.00 | 0.00 | 0.00 | 68 | 1018.6 |
| 20260506154536 | 17 | 0 | 0.0 | 0.0 | 0.00 | 0.00 | 0.00 | 70 | 1018.7 |
| 20260506154019 | 17 | 0 | 0.0 | 0.0 | 0.00 | 0.00 | 0.00 | 70 | 1018.7 |
| 20260506153519 | 16 | 0 | 0.0 | 0.0 | 0.00 | 0.00 | 0.00 | 72 | 1018.7 |
| 20260506153035 | 16 | 0 | 0.0 | 0.0 | 0.00 | 0.00 | 0.00 | 73 | 1018.8 |
| 20260506152518 | 16 | 0 | 0.0 | 0.0 | 0.00 | 0.00 | 0.00 | 74 | 1018.7 |
| 20260506152021 | 15 | 0 | 0.0 | 0.0 | 0.00 | 0.00 | 0.00 | 75 | 1018.7 |
| 20260506151537 | 15 | 0 | 0.0 | 0.0 | 0.00 | 0.00 | 0.00 | 77 | 1018.7 |
| 20260506151017 | 15 | 0 | 0.0 | 0.0 | 0.00 | 0.00 | 0.00 | 79 | 1018.6 |
| 20260506150517 | 14 | 0 | 0.0 | 0.0 | 0.00 | 0.00 | 0.00 | 81 | 1018.6 |
| 20260506150032 | 13 | 0 | 0.0 | 0.0 | 0.00 | 0.00 | 0.00 | 82 | 1018.6 |
| 20260506145518 | 13 | 0 | 0.0 | 0.0 | 0.00 | 0.00 | 0.00 | 84 | 1018.6 |
| 20260506145018 | 12 | 0 | 0.0 | 4.8 | 0.00 | 0.00 | 0.00 | 86 | 1018.7 |
| 20260506144543 | 12 | 0 | 0.0 | 4.8 | 0.00 | 0.00 | 0.00 | 87 | 1018.6 |
| 20260506144020 | 12 | 0 | 0.0 | 6.4 | 0.00 | 0.00 | 0.00 | 87 | 1018.7 |
| 20260506143518 | 11 | 0 | 0.0 | 6.4 | 0.00 | 0.00 | 0.00 | 88 | 1018.6 |
| 20260506143035 | 11 | 0 | 0.0 | 0.0 | 0.00 | 0.00 | 0.00 | 89 | 1018.6 |
| 20260506142520 | 11 | 0 | 0.0 | 0.0 | 0.00 | 0.00 | 0.00 | 88 | 1018.5 |
| 20260506142019 | 11 | 0 | 0.0 | 0.0 | 0.00 | 0.00 | 0.00 | 88 | 1018.6 |
| 20260506141535 | 11 | 0 | 0.0 | 0.0 | 0.00 | 0.00 | 0.00 | 89 | 1018.6 |
| 20260506141021 | 10 | 0 | 0.0 | 0.0 | 0.00 | 0.00 | 0.00 | 89 | 1018.6 |
| 20260506140518 | 10 | 0 | 0.0 | 0.0 | 0.00 | 0.00 | 0.00 | 90 | 1018.5 |
| 20260506140035 | 10 | 0 | 0.0 | 0.0 | 0.00 | 0.00 | 0.00 | 92 | 1018.6 |
| 20260506135517 | 9 | 0 | 0.0 | 0.0 | 0.00 | 0.00 | 0.00 | 93 | 1018.6 |
| 20260506135018 | 9 | 0 | 0.0 | 0.0 | 0.00 | 0.00 | 0.00 | 92 | 1018.6 |
| 20260506134536 | 8 | 0 | 0.0 | 0.0 | 0.00 | 0.00 | 0.00 | 92 | 1018.6 |
| 20260506134017 | 8 | 0 | 0.0 | 0.0 | 0.00 | 0.00 | 0.00 | 92 | 1018.5 |
| 20260506133517 | 8 | 0 | 0.0 | 0.0 | 0.00 | 0.00 | 0.00 | 92 | 1018.5 |
| 20260506133032 | 8 | 0 | 0.0 | 0.0 | 0.00 | 0.00 | 0.00 | 91 | 1018.4 |
| 20260506132518 | 8 | 0 | 0.0 | 0.0 | 0.00 | 0.00 | 0.00 | 91 | 1018.4 |
| 20260506132022 | 8 | 0 | 0.0 | 0.0 | 0.00 | 0.00 | 0.00 | 91 | 1018.2 |
| 20260506131537 | 8 | 0 | 0.0 | 0.0 | 0.00 | 0.00 | 0.00 | 91 | 1018.3 |
| 20260506131019 | 8 | 0 | 0.0 | 0.0 | 0.00 | 0.00 | 0.00 | 91 | 1018.2 |
| 20260506130520 | 8 | 0 | 0.0 | 0.0 | 0.00 | 0.00 | 0.00 | 91 | 1018.1 |
| 20260506130036 | 8 | 0 | 0.0 | 0.0 | 0.00 | 0.00 | 0.00 | 91 | 1018.1 |
| 20260506125518 | 8 | 0 | 0.0 | 0.0 | 0.00 | 0.00 | 0.00 | 91 | 1018.0 |
| 20260506125021 | 8 | 0 | 0.0 | 0.0 | 0.00 | 0.00 | 0.00 | 91 | 1018.0 |
| 20260506124535 | 8 | 0 | 0.0 | 0.0 | 0.00 | 0.00 | 0.00 | 90 | 1018.0 |
| 20260506124018 | 8 | 0 | 0.0 | 0.0 | 0.00 | 0.00 | 0.00 | 90 | 1018.0 |
| 20260506123518 | 8 | 0 | 0.0 | 0.0 | 0.00 | 0.00 | 0.00 | 90 | 1018.0 |
| 20260506123035 | 8 | 0 | 0.0 | 0.0 | 0.00 | 0.00 | 0.00 | 90 | 1017.9 |
| 20260506122518 | 8 | 0 | 0.0 | 0.0 | 0.00 | 0.00 | 0.00 | 90 | 1017.9 |
| 20260506122019 | 9 | 0 | 0.0 | 0.0 | 0.00 | 0.00 | 0.00 | 90 | 1017.8 |
| 20260506121533 | 9 | 0 | 0.0 | 0.0 | 0.00 | 0.00 | 0.00 | 90 | 1017.7 |
| 20260506121018 | 9 | 0 | 0.0 | 0.0 | 0.00 | 0.00 | 0.00 | 90 | 1017.7 |
| 20260506120518 | 9 | 0 | 0.0 | 0.0 | 0.00 | 0.00 | 0.00 | 90 | 1017.7 |
| 20260506120043 | 9 | 0 | 0.0 | 0.0 | 0.00 | 0.00 | 0.00 | 90 | 1017.7 |
| 20260506115518 | 9 | 0 | 0.0 | 0.0 | 0.00 | 0.00 | 0.00 | 90 | 1017.7 |
| 20260506115018 | 9 | 0 | 0.0 | 0.0 | 0.00 | 0.00 | 0.00 | 90 | 1017.7 |
| 20260506114535 | 9 | 0 | 0.0 | 0.0 | 0.00 | 0.00 | 0.00 | 90 | 1017.7 |
| 20260506114019 | 9 | 0 | 0.0 | 0.0 | 0.00 | 0.00 | 0.00 | 90 | 1017.7 |
| 20260506113519 | 9 | 0 | 0.0 | 0.0 | 0.00 | 0.00 | 0.00 | 90 | 1017.6 |
| 20260506113035 | 9 | 0 | 0.0 | 0.0 | 0.00 | 0.00 | 0.00 | 89 | 1017.6 |
| 20260506112518 | 9 | 0 | 0.0 | 0.0 | 0.00 | 0.00 | 0.00 | 89 | 1017.6 |
| 20260506112018 | 9 | 0 | 0.0 | 0.0 | 0.00 | 0.00 | 0.00 | 89 | 1017.6 |
| 20260506111539 | 10 | 0 | 0.0 | 0.0 | 0.00 | 0.00 | 0.00 | 89 | 1017.6 |
| 20260506111019 | 10 | 0 | 0.0 | 0.0 | 0.00 | 0.00 | 0.00 | 90 | 1017.6 |
| 20260506110518 | 10 | 0 | 0.0 | 0.0 | 0.00 | 0.00 | 0.00 | 90 | 1017.6 |
| 20260506110035 | 10 | 0 | 0.0 | 0.0 | 0.00 | 0.00 | 0.00 | 90 | 1017.6 |
| 20260506105518 | 10 | 0 | 0.0 | 0.0 | 0.00 | 0.00 | 0.00 | 90 | 1017.5 |
| 20260506105019 | 10 | 0 | 0.0 | 0.0 | 0.00 | 0.00 | 0.00 | 89 | 1017.6 |
| 20260506104538 | 10 | 0 | 0.0 | 0.0 | 0.00 | 0.00 | 0.00 | 89 | 1017.6 |
| 20260506104018 | 10 | 0 | 0.0 | 0.0 | 0.00 | 0.00 | 0.00 | 89 | 1017.6 |
| 20260506103519 | 10 | 0 | 0.0 | 0.0 | 0.00 | 0.00 | 0.00 | 89 | 1017.6 |
| 20260506103046 | 10 | 0 | 0.0 | 0.0 | 0.00 | 0.00 | 0.00 | 88 | 1017.6 |
| 20260506102520 | 10 | 0 | 0.0 | 0.0 | 0.00 | 0.00 | 0.00 | 88 | 1017.7 |
| 20260506102019 | 10 | 0 | 0.0 | 0.0 | 0.00 | 0.00 | 0.00 | 88 | 1017.6 |
| 20260506101532 | 10 | 0 | 0.0 | 0.0 | 0.00 | 0.00 | 0.00 | 87 | 1017.6 |
| 20260506101022 | 10 | 0 | 0.0 | 0.0 | 0.00 | 0.00 | 0.00 | 87 | 1017.6 |
| 20260506100522 | 10 | 0 | 0.0 | 0.0 | 0.00 | 0.00 | 0.00 | 86 | 1017.6 |